Time,TemperatureF,DewpointF,PressureIn,WindDirection,WindDirectionDegrees,WindSpeedMPH,WindSpeedGustMPH,Humidity,HourlyPrecipIn,Conditions,Clouds,dailyrainin,SoftwareType,DateUTC
2013-06-25 00:04:00,55.4,46.6,30.15,WSW,248,0.0,0.0,72,0.00,,,0.00,WUHU216HW,2013-06-24 23:04:00,
2013-06-25 00:09:00,55.1,46.3,30.15,WSW,248,0.0,0.0,72,0.00,,,0.00,WUHU216HW,2013-06-24 23:09:00,
2013-06-25 00:14:00,55.1,46.6,30.15,WSW,248,0.0,0.0,73,0.00,,,0.00,WUHU216HW,2013-06-24 23:14:00,
2013-06-25 00:19:00,54.9,46.5,30.15,WSW,248,0.0,0.2,73,0.00,,,0.00,WUHU216HW,2013-06-24 23:19:00,
2013-06-25 00:25:00,54.7,46.3,30.15,WSW,248,0.0,0.2,73,0.00,,,0.00,WUHU216HW,2013-06-24 23:25:00,
2013-06-25 00:30:00,54.5,46.1,30.15,WSW,248,0.0,0.4,73,0.00,,,0.00,WUHU216HW,2013-06-24 23:30:00,
2013-06-25 00:35:00,54.4,46.3,30.15,WSW,248,0.0,0.4,74,0.00,,,0.00,WUHU216HW,2013-06-24 23:35:00,
2013-06-25 00:40:00,54.4,46.6,30.15,WSW,248,0.0,0.0,75,0.00,,,0.00,WUHU216HW,2013-06-24 23:40:00,
2013-06-25 00:45:00,54.4,47.0,30.15,WSW,248,0.0,0.0,76,0.00,,,0.00,WUHU216HW,2013-06-24 23:45:00,
2013-06-25 00:50:00,54.4,47.0,30.15,WSW,248,0.2,0.4,76,0.00,,,0.00,WUHU216HW,2013-06-24 23:50:00,
2013-06-25 00:55:00,54.4,47.3,30.15,WSW,248,0.0,0.4,77,0.00,,,0.00,WUHU216HW,2013-06-24 23:55:00,
2013-06-25 01:01:00,54.5,47.4,30.15,WSW,248,0.2,0.4,77,0.00,,,0.00,WUHU216HW,2013-06-25 00:01:00,
2013-06-25 01:06:00,54.5,47.4,30.15,WSW,248,0.0,0.2,77,0.00,,,0.00,WUHU216HW,2013-06-25 00:06:00,
2013-06-25 01:11:00,54.7,47.3,30.15,WSW,248,0.0,0.0,76,0.00,,,0.00,WUHU216HW,2013-06-25 00:11:00,
2013-06-25 01:16:00,54.7,47.3,30.15,WSW,248,0.0,0.0,76,0.00,,,0.00,WUHU216HW,2013-06-25 00:16:00,
2013-06-25 01:21:00,54.5,47.1,30.15,WSW,248,0.0,0.0,76,0.00,,,0.00,WUHU216HW,2013-06-25 00:21:00,
2013-06-25 01:26:00,54.5,47.1,30.15,WSW,248,0.0,0.0,76,0.00,,,0.00,WUHU216HW,2013-06-25 00:26:00,
2013-06-25 01:31:00,54.5,47.1,30.15,WSW,248,0.0,0.0,76,0.00,,,0.00,WUHU216HW,2013-06-25 00:31:00,
2013-06-25 01:34:00,54.5,47.1,30.15,WSW,248,0.0,0.0,76,0.00,,,0.00,WUHU216HW,2013-06-25 00:34:00,
2013-06-25 01:40:00,54.5,47.4,30.15,WSW,248,0.0,0.0,77,0.00,,,0.00,WUHU216HW,2013-06-25 00:40:00,
2013-06-25 01:46:00,54.5,47.1,30.15,WSW,248,0.0,0.4,76,0.00,,,0.00,WUHU216HW,2013-06-25 00:46:00,
2013-06-25 01:52:00,54.4,45.9,30.15,WSW,248,0.2,0.4,73,0.00,,,0.00,WUHU216HW,2013-06-25 00:52:00,
2013-06-25 01:58:00,54.5,45.4,30.15,WNW,293,0.4,1.1,71,0.00,,,0.00,WUHU216HW,2013-06-25 00:58:00,
2013-06-25 02:04:00,54.7,45.6,30.15,WNW,293,0.0,1.1,71,0.00,,,0.00,WUHU216HW,2013-06-25 01:04:00,
2013-06-25 02:10:00,54.7,45.6,30.15,WNW,293,0.0,0.9,71,0.00,,,0.00,WUHU216HW,2013-06-25 01:10:00,
2013-06-25 02:16:00,54.7,45.6,30.15,WNW,293,0.0,0.7,71,0.00,,,0.00,WUHU216HW,2013-06-25 01:16:00,
2013-06-25 02:22:00,54.5,45.4,30.15,WNW,293,0.0,0.7,71,0.00,,,0.00,WUHU216HW,2013-06-25 01:22:00,
2013-06-25 02:28:00,54.5,45.4,30.16,WNW,293,0.0,0.7,71,0.00,,,0.00,WUHU216HW,2013-06-25 01:28:00,
2013-06-25 02:34:00,54.4,45.2,30.16,WNW,293,0.4,0.4,71,0.00,,,0.00,WUHU216HW,2013-06-25 01:34:00,
2013-06-25 02:40:00,54.4,45.2,30.16,WNW,293,0.2,0.4,71,0.00,,,0.00,WUHU216HW,2013-06-25 01:40:00,
2013-06-25 02:46:00,54.2,45.0,30.16,WNW,293,0.0,0.4,71,0.00,,,0.00,WUHU216HW,2013-06-25 01:46:00,
2013-06-25 02:52:00,54.0,44.8,30.16,WNW,293,0.0,0.7,71,0.00,,,0.00,WUHU216HW,2013-06-25 01:52:00,
2013-06-25 02:58:00,53.8,44.7,30.17,WNW,293,0.0,0.7,71,0.00,,,0.00,WUHU216HW,2013-06-25 01:58:00,
2013-06-25 03:09:00,53.6,44.8,30.17,WNW,293,0.0,0.0,72,0.00,,,0.00,WUHU216HW,2013-06-25 02:09:00,
2013-06-25 03:14:00,53.5,45.0,30.17,WNW,293,0.0,0.0,73,0.00,,,0.00,WUHU216HW,2013-06-25 02:14:00,
2013-06-25 03:19:00,53.3,44.5,30.17,WNW,293,0.0,0.0,72,0.00,,,0.00,WUHU216HW,2013-06-25 02:19:00,
2013-06-25 03:24:00,53.1,44.3,30.17,WNW,293,0.0,0.0,72,0.00,,,0.00,WUHU216HW,2013-06-25 02:24:00,
2013-06-25 03:29:00,52.9,44.6,30.17,WNW,293,0.0,0.0,73,0.00,,,0.00,WUHU216HW,2013-06-25 02:29:00,
2013-06-25 03:35:00,52.9,44.6,30.17,WNW,293,0.0,0.0,73,0.00,,,0.00,WUHU216HW,2013-06-25 02:35:00,
2013-06-25 03:40:00,52.7,44.4,30.17,WNW,293,0.0,0.0,73,0.00,,,0.00,WUHU216HW,2013-06-25 02:40:00,
2013-06-25 03:45:00,52.7,44.7,30.17,WNW,293,0.0,0.0,74,0.00,,,0.00,WUHU216HW,2013-06-25 02:45:00,
2013-06-25 03:50:00,52.6,44.9,30.17,WNW,293,0.0,0.7,75,0.00,,,0.00,WUHU216HW,2013-06-25 02:50:00,
2013-06-25 03:55:00,52.6,44.6,30.17,WNW,293,0.0,0.7,74,0.00,,,0.00,WUHU216HW,2013-06-25 02:55:00,
2013-06-25 04:00:00,52.4,44.4,30.17,WNW,293,0.0,0.0,74,0.00,,,0.00,WUHU216HW,2013-06-25 03:00:00,
2013-06-25 04:05:00,52.4,44.4,30.18,WNW,293,0.0,0.0,74,0.00,,,0.00,WUHU216HW,2013-06-25 03:05:00,
2013-06-25 04:10:00,52.2,44.6,30.18,WNW,293,0.0,0.0,75,0.00,,,0.00,WUHU216HW,2013-06-25 03:10:00,
2013-06-25 04:16:00,52.2,44.6,30.18,WNW,293,0.0,0.0,75,0.00,,,0.00,WUHU216HW,2013-06-25 03:16:00,
2013-06-25 04:21:00,52.2,44.6,30.18,WNW,293,0.0,0.0,75,0.00,,,0.00,WUHU216HW,2013-06-25 03:21:00,
2013-06-25 04:27:00,52.2,44.6,30.18,WNW,293,0.0,0.0,75,0.00,,,0.00,WUHU216HW,2013-06-25 03:27:00,
2013-06-25 04:32:00,52.2,44.9,30.18,WNW,293,0.0,0.0,76,0.00,,,0.00,WUHU216HW,2013-06-25 03:32:00,
2013-06-25 04:37:00,52.2,44.9,30.18,WNW,293,0.0,0.0,76,0.00,,,0.00,WUHU216HW,2013-06-25 03:37:00,
2013-06-25 04:43:00,52.2,44.9,30.18,WNW,293,0.0,0.0,76,0.00,,,0.00,WUHU216HW,2013-06-25 03:43:00,
2013-06-25 04:48:00,52.2,44.9,30.18,WNW,293,0.0,0.0,76,0.00,,,0.00,WUHU216HW,2013-06-25 03:48:00,
2013-06-25 04:50:00,52.0,45.1,30.18,WNW,293,0.0,0.0,77,0.00,,,0.00,WUHU216HW,2013-06-25 03:50:00,
2013-06-25 04:56:00,52.2,45.2,30.18,WNW,293,0.0,0.0,77,0.00,,,0.00,WUHU216HW,2013-06-25 03:56:00,
2013-06-25 05:02:00,52.2,45.2,30.18,WNW,293,0.0,0.0,77,0.00,,,0.00,WUHU216HW,2013-06-25 04:02:00,
2013-06-25 05:08:00,52.2,45.2,30.18,WNW,293,0.0,0.0,77,0.00,,,0.00,WUHU216HW,2013-06-25 04:08:00,
2013-06-25 05:14:00,52.0,45.4,30.18,WNW,293,0.0,0.0,78,0.00,,,0.00,WUHU216HW,2013-06-25 04:14:00,
2013-06-25 05:20:00,52.0,45.4,30.19,WNW,293,0.0,0.0,78,0.00,,,0.00,WUHU216HW,2013-06-25 04:20:00,
2013-06-25 05:31:00,52.0,45.4,30.19,WNW,293,0.0,0.0,78,0.00,,,0.00,WUHU216HW,2013-06-25 04:31:00,
2013-06-25 05:32:00,52.0,45.4,30.19,WNW,293,0.0,0.0,78,0.00,,,0.00,WUHU216HW,2013-06-25 04:32:00,
2013-06-25 05:37:00,52.0,45.7,30.19,WNW,293,0.0,0.0,79,0.00,,,0.00,WUHU216HW,2013-06-25 04:37:00,
2013-06-25 05:42:00,52.0,45.7,30.19,WNW,293,0.0,0.0,79,0.00,,,0.00,WUHU216HW,2013-06-25 04:42:00,
2013-06-25 05:47:00,52.0,45.7,30.19,WNW,293,0.0,0.0,79,0.00,,,0.00,WUHU216HW,2013-06-25 04:47:00,
2013-06-25 05:52:00,52.2,45.9,30.19,WNW,293,0.0,0.0,79,0.00,,,0.00,WUHU216HW,2013-06-25 04:52:00,
2013-06-25 05:57:00,52.2,45.9,30.19,WNW,293,0.0,0.0,79,0.00,,,0.00,WUHU216HW,2013-06-25 04:57:00,
2013-06-25 06:02:00,52.2,45.9,30.19,WNW,293,0.0,0.0,79,0.00,,,0.00,WUHU216HW,2013-06-25 05:02:00,
2013-06-25 06:07:00,52.4,46.4,30.20,WNW,293,0.0,0.4,80,0.00,,,0.00,WUHU216HW,2013-06-25 05:07:00,
2013-06-25 06:12:00,52.6,46.6,30.20,WNW,293,0.2,0.4,80,0.00,,,0.00,WUHU216HW,2013-06-25 05:12:00,
2013-06-25 06:17:00,52.6,46.6,30.20,WNW,293,0.0,0.2,80,0.00,,,0.00,WUHU216HW,2013-06-25 05:17:00,
2013-06-25 06:22:00,52.6,46.6,30.20,WNW,293,0.0,0.2,80,0.00,,,0.00,WUHU216HW,2013-06-25 05:22:00,
2013-06-25 06:27:00,52.9,47.0,30.20,WSW,248,0.0,0.2,80,0.00,,,0.00,WUHU216HW,2013-06-25 05:27:00,
2013-06-25 06:32:00,52.9,47.0,30.20,SW,225,0.0,0.4,80,0.00,,,0.00,WUHU216HW,2013-06-25 05:32:00,
2013-06-25 06:37:00,52.9,47.0,30.20,SW,225,0.0,0.4,80,0.00,,,0.00,WUHU216HW,2013-06-25 05:37:00,
2013-06-25 06:42:00,52.9,47.0,30.20,SW,225,0.2,0.2,80,0.00,,,0.00,WUHU216HW,2013-06-25 05:42:00,
2013-06-25 06:47:00,52.9,47.0,30.20,SW,225,0.0,0.2,80,0.00,,,0.00,WUHU216HW,2013-06-25 05:47:00,
2013-06-25 06:52:00,53.1,47.2,30.21,South,180,0.4,0.4,80,0.00,,,0.00,WUHU216HW,2013-06-25 05:52:00,
2013-06-25 06:57:00,53.3,47.3,30.20,South,180,0.2,0.9,80,0.00,,,0.00,WUHU216HW,2013-06-25 05:57:00,
2013-06-25 07:02:00,53.5,47.2,30.21,South,180,0.0,0.9,79,0.00,,,0.00,WUHU216HW,2013-06-25 06:02:00,
2013-06-25 07:07:00,53.6,47.3,30.21,South,180,0.0,0.4,79,0.00,,,0.00,WUHU216HW,2013-06-25 06:07:00,
2013-06-25 07:12:00,53.8,47.9,30.21,South,180,0.2,0.4,80,0.00,,,0.00,WUHU216HW,2013-06-25 06:12:00,
2013-06-25 07:17:00,53.8,47.5,30.21,South,180,0.0,0.7,79,0.00,,,0.00,WUHU216HW,2013-06-25 06:17:00,
2013-06-25 07:22:00,54.0,47.7,30.22,South,180,0.0,1.1,79,0.00,,,0.00,WUHU216HW,2013-06-25 06:22:00,
2013-06-25 07:27:00,54.2,47.8,30.22,South,180,0.2,1.1,79,0.00,,,0.00,WUHU216HW,2013-06-25 06:27:00,
2013-06-25 07:32:00,54.0,47.7,30.22,South,180,0.0,0.4,79,0.00,,,0.00,WUHU216HW,2013-06-25 06:32:00,
2013-06-25 07:37:00,54.2,47.8,30.22,WSW,248,0.7,1.1,79,0.00,,,0.00,WUHU216HW,2013-06-25 06:37:00,
2013-06-25 07:42:00,54.0,47.7,30.22,South,180,0.0,1.1,79,0.00,,,0.00,WUHU216HW,2013-06-25 06:42:00,
2013-06-25 07:47:00,54.0,47.7,30.22,South,180,1.1,1.8,79,0.00,,,0.00,WUHU216HW,2013-06-25 06:47:00,
2013-06-25 07:52:00,54.2,47.8,30.22,South,180,0.0,1.8,79,0.00,,,0.00,WUHU216HW,2013-06-25 06:52:00,
2013-06-25 07:57:00,54.7,48.7,30.22,SW,225,0.2,1.3,80,0.00,,,0.00,WUHU216HW,2013-06-25 06:57:00,
2013-06-25 08:02:00,55.1,48.7,30.22,South,180,0.9,1.8,79,0.00,,,0.00,WUHU216HW,2013-06-25 07:02:00,
2013-06-25 08:07:00,55.8,49.3,30.22,South,180,0.2,1.8,79,0.00,,,0.00,WUHU216HW,2013-06-25 07:07:00,
2013-06-25 08:12:00,56.3,49.1,30.22,South,180,0.4,1.8,77,0.00,,,0.00,WUHU216HW,2013-06-25 07:12:00,
2013-06-25 08:17:00,57.1,49.1,30.22,SSW,203,0.4,1.1,75,0.00,,,0.00,WUHU216HW,2013-06-25 07:17:00,
2013-06-25 08:22:00,57.4,49.1,30.22,SE,135,0.4,1.6,74,0.00,,,0.00,WUHU216HW,2013-06-25 07:22:00,
2013-06-25 08:27:00,57.8,48.1,30.22,NW,315,0.9,1.6,70,0.00,,,0.00,WUHU216HW,2013-06-25 07:27:00,
2013-06-25 08:32:00,58.0,48.6,30.22,NW,315,0.2,1.6,71,0.00,,,0.00,WUHU216HW,2013-06-25 07:32:00,
2013-06-25 08:37:00,58.1,48.4,30.22,WNW,293,0.4,1.1,70,0.00,,,0.00,WUHU216HW,2013-06-25 07:37:00,
2013-06-25 08:42:00,58.7,48.5,30.22,WNW,293,0.2,1.1,69,0.00,,,0.00,WUHU216HW,2013-06-25 07:42:00,
2013-06-25 08:47:00,59.2,49.1,30.23,WNW,293,0.2,0.9,69,0.00,,,0.00,WUHU216HW,2013-06-25 07:47:00,
2013-06-25 08:52:00,59.6,49.1,30.22,WNW,293,0.2,2.5,68,0.00,,,0.00,WUHU216HW,2013-06-25 07:52:00,
2013-06-25 08:57:00,59.9,49.0,30.23,NE,45,0.4,2.5,67,0.00,,,0.00,WUHU216HW,2013-06-25 07:57:00,
2013-06-25 09:02:00,60.3,49.0,30.23,NNE,23,0.2,0.9,66,0.00,,,0.00,WUHU216HW,2013-06-25 08:02:00,
2013-06-25 09:07:00,60.7,48.9,30.23,NW,315,0.0,0.9,65,0.00,,,0.00,WUHU216HW,2013-06-25 08:07:00,
2013-06-25 09:12:00,60.8,49.1,30.23,NNE,23,0.0,2.2,65,0.00,,,0.00,WUHU216HW,2013-06-25 08:12:00,
2013-06-25 09:17:00,60.8,48.3,30.23,NNW,338,2.5,4.3,63,0.00,,,0.00,WUHU216HW,2013-06-25 08:17:00,
2013-06-25 09:22:00,60.8,48.3,30.22,West,270,0.4,4.3,63,0.00,,,0.00,WUHU216HW,2013-06-25 08:22:00,
2013-06-25 09:27:00,60.8,48.6,30.22,WNW,293,1.1,3.4,64,0.00,,,0.00,WUHU216HW,2013-06-25 08:27:00,
2013-06-25 09:32:00,61.4,49.2,30.23,NE,45,0.2,1.1,64,0.00,,,0.00,WUHU216HW,2013-06-25 08:32:00,
2013-06-25 09:37:00,61.9,49.2,30.22,East,90,1.3,3.1,63,0.00,,,0.00,WUHU216HW,2013-06-25 08:37:00,
2013-06-25 09:42:00,61.9,48.0,30.22,NW,315,1.8,3.8,60,0.00,,,0.00,WUHU216HW,2013-06-25 08:42:00,
2013-06-25 09:47:00,61.6,48.4,30.22,West,270,0.4,3.8,62,0.00,,,0.00,WUHU216HW,2013-06-25 08:47:00,
2013-06-25 09:52:00,61.7,49.4,30.22,SSW,203,1.8,2.0,64,0.00,,,0.00,WUHU216HW,2013-06-25 08:52:00,
2013-06-25 09:57:00,62.3,48.7,30.22,West,270,1.8,2.7,61,0.00,,,0.00,WUHU216HW,2013-06-25 08:57:00,
2013-06-25 10:02:00,62.8,48.2,30.22,NW,315,0.0,2.7,59,0.00,,,0.00,WUHU216HW,2013-06-25 09:02:00,
2013-06-25 10:07:00,63.2,48.6,30.22,West,270,0.2,2.7,59,0.00,,,0.00,WUHU216HW,2013-06-25 09:07:00,
2013-06-25 10:12:00,63.4,48.8,30.22,WNW,293,0.2,2.0,59,0.00,,,0.00,WUHU216HW,2013-06-25 09:12:00,
2013-06-25 10:17:00,63.7,48.6,30.23,NW,315,1.1,3.1,58,0.00,,,0.00,WUHU216HW,2013-06-25 09:17:00,
2013-06-25 10:22:00,63.7,48.2,30.23,West,270,0.9,3.8,57,0.00,,,0.00,WUHU216HW,2013-06-25 09:22:00,
2013-06-25 10:27:00,63.4,48.8,30.23,WNW,293,1.1,3.8,59,0.00,,,0.00,WUHU216HW,2013-06-25 09:27:00,
2013-06-25 10:32:00,63.2,47.6,30.23,NW,315,0.0,3.6,57,0.00,,,0.00,WUHU216HW,2013-06-25 09:32:00,
2013-06-25 10:37:00,63.7,49.1,30.22,SSW,203,0.9,3.6,59,0.00,,,0.00,WUHU216HW,2013-06-25 09:37:00,
2013-06-25 10:42:00,64.4,48.8,30.23,WSW,248,0.4,1.8,57,0.00,,,0.00,WUHU216HW,2013-06-25 09:42:00,
2013-06-25 10:47:00,64.6,48.0,30.22,NNW,338,1.6,1.8,55,0.00,,,0.00,WUHU216HW,2013-06-25 09:47:00,
2013-06-25 10:52:00,64.1,47.0,30.23,WSW,248,0.4,1.6,54,0.00,,,0.00,WUHU216HW,2013-06-25 09:52:00,
2013-06-25 10:57:00,63.7,47.6,30.23,SSW,203,0.7,4.7,56,0.00,,,0.00,WUHU216HW,2013-06-25 09:57:00,
2013-06-25 11:02:00,63.4,47.8,30.23,SSW,203,0.4,4.7,57,0.00,,,0.00,WUHU216HW,2013-06-25 10:02:00,
2013-06-25 11:07:00,63.2,48.6,30.23,WSW,248,0.0,3.1,59,0.00,,,0.00,WUHU216HW,2013-06-25 10:07:00,
2013-06-25 11:12:00,63.5,48.4,30.23,NW,315,0.4,3.1,58,0.00,,,0.00,WUHU216HW,2013-06-25 10:12:00,
2013-06-25 11:17:00,63.9,47.8,30.23,SW,225,0.7,2.5,56,0.00,,,0.00,WUHU216HW,2013-06-25 10:17:00,
2013-06-25 11:22:00,64.3,47.2,30.23,WNW,293,0.9,2.7,54,0.00,,,0.00,WUHU216HW,2013-06-25 10:22:00,
2013-06-25 11:27:00,63.7,46.6,30.22,West,270,0.2,2.7,54,0.00,,,0.00,WUHU216HW,2013-06-25 10:27:00,
2013-06-25 11:32:00,63.7,47.6,30.22,SSE,158,0.4,2.5,56,0.00,,,0.00,WUHU216HW,2013-06-25 10:32:00,
2013-06-25 11:37:00,63.7,46.2,30.23,WNW,293,2.5,4.7,53,0.00,,,0.00,WUHU216HW,2013-06-25 10:37:00,
2013-06-25 11:42:00,63.2,46.2,30.23,WNW,293,0.4,4.7,54,0.00,,,0.00,WUHU216HW,2013-06-25 10:42:00,
2013-06-25 11:47:00,63.0,46.5,30.23,West,270,0.4,2.5,55,0.00,,,0.00,WUHU216HW,2013-06-25 10:47:00,
2013-06-25 11:52:00,63.0,47.0,30.23,WNW,293,0.4,2.2,56,0.00,,,0.00,WUHU216HW,2013-06-25 10:52:00,
2013-06-25 11:57:00,62.8,46.4,30.23,West,270,0.0,1.8,55,0.00,,,0.00,WUHU216HW,2013-06-25 10:57:00,
2013-06-25 12:02:00,63.0,47.0,30.23,NNW,338,1.6,2.0,56,0.00,,,0.00,WUHU216HW,2013-06-25 11:02:00,
2013-06-25 12:07:00,63.9,47.4,30.23,NW,315,1.6,2.5,55,0.00,,,0.00,WUHU216HW,2013-06-25 11:07:00,
2013-06-25 12:12:00,65.2,47.5,30.23,SSW,203,1.1,2.5,53,0.00,,,0.00,WUHU216HW,2013-06-25 11:12:00,
2013-06-25 12:17:00,66.2,46.5,30.23,West,270,1.1,1.8,49,0.00,,,0.00,WUHU216HW,2013-06-25 11:17:00,
2013-06-25 12:22:00,66.6,46.9,30.23,East,90,1.6,4.0,49,0.00,,,0.00,WUHU216HW,2013-06-25 11:22:00,
2013-06-25 12:27:00,66.2,46.5,30.23,West,270,0.7,4.0,49,0.00,,,0.00,WUHU216HW,2013-06-25 11:27:00,
2013-06-25 12:32:00,65.3,46.7,30.23,West,270,0.2,4.0,51,0.00,,,0.00,WUHU216HW,2013-06-25 11:32:00,
2013-06-25 12:37:00,65.2,46.5,30.23,WNW,293,1.1,4.0,51,0.00,,,0.00,WUHU216HW,2013-06-25 11:37:00,
2013-06-25 12:42:00,65.2,47.1,30.23,SW,225,0.2,1.8,52,0.00,,,0.00,WUHU216HW,2013-06-25 11:42:00,
2013-06-25 12:47:00,65.2,47.1,30.23,WNW,293,0.2,3.4,52,0.00,,,0.00,WUHU216HW,2013-06-25 11:47:00,
2013-06-25 12:52:00,64.8,46.7,30.23,West,270,0.4,3.4,52,0.00,,,0.00,WUHU216HW,2013-06-25 11:52:00,
2013-06-25 12:57:00,65.5,47.4,30.24,WNW,293,1.8,3.4,52,0.00,,,0.00,WUHU216HW,2013-06-25 11:57:00,
2013-06-25 13:02:00,65.9,46.2,30.24,West,270,0.9,3.4,49,0.00,,,0.00,WUHU216HW,2013-06-25 12:02:00,
2013-06-25 13:07:00,65.5,45.3,30.23,NNW,338,0.4,4.0,48,0.00,,,0.00,WUHU216HW,2013-06-25 12:07:00,
2013-06-25 13:12:00,66.2,46.5,30.24,SW,225,0.4,4.0,49,0.00,,,0.00,WUHU216HW,2013-06-25 12:12:00,
2013-06-25 13:17:00,67.7,46.7,30.24,West,270,1.1,1.6,47,0.00,,,0.00,WUHU216HW,2013-06-25 12:17:00,
2013-06-25 13:22:00,68.2,44.8,30.23,WSW,248,2.0,2.0,43,0.00,,,0.00,WUHU216HW,2013-06-25 12:22:00,
2013-06-25 13:27:00,68.0,45.2,30.23,West,270,1.1,2.7,44,0.00,,,0.00,WUHU216HW,2013-06-25 12:27:00,
2013-06-25 13:32:00,67.3,45.2,30.24,NW,315,0.0,3.6,45,0.00,,,0.00,WUHU216HW,2013-06-25 12:32:00,
2013-06-25 13:37:00,66.4,45.5,30.24,WNW,293,1.1,5.4,47,0.00,,,0.00,WUHU216HW,2013-06-25 12:37:00,
2013-06-25 13:42:00,65.9,45.6,30.24,NW,315,0.7,5.4,48,0.00,,,0.00,WUHU216HW,2013-06-25 12:42:00,
2013-06-25 13:47:00,65.9,46.2,30.24,WNW,293,0.9,4.0,49,0.00,,,0.00,WUHU216HW,2013-06-25 12:47:00,
2013-06-25 13:52:00,65.9,45.0,30.24,WNW,293,0.0,4.3,47,0.00,,,0.00,WUHU216HW,2013-06-25 12:52:00,
2013-06-25 13:57:00,66.2,46.0,30.24,WNW,293,1.1,4.3,48,0.00,,,0.00,WUHU216HW,2013-06-25 12:57:00,
2013-06-25 14:02:00,66.2,44.8,30.24,SE,135,1.3,4.0,46,0.00,,,0.00,WUHU216HW,2013-06-25 13:02:00,
2013-06-25 14:07:00,65.9,45.6,30.24,NW,315,1.8,4.3,48,0.00,,,0.00,WUHU216HW,2013-06-25 13:07:00,
2013-06-25 14:12:00,66.1,45.8,30.24,WNW,293,0.2,4.3,48,0.00,,,0.00,WUHU216HW,2013-06-25 13:12:00,
2013-06-25 14:17:00,66.2,45.4,30.24,West,270,0.2,1.8,47,0.00,,,0.00,WUHU216HW,2013-06-25 13:17:00,
2013-06-25 14:22:00,66.4,46.7,30.24,NW,315,0.0,1.6,49,0.00,,,0.00,WUHU216HW,2013-06-25 13:22:00,
2013-06-25 14:27:00,66.8,45.3,30.24,NW,315,0.2,1.3,46,0.00,,,0.00,WUHU216HW,2013-06-25 13:27:00,
2013-06-25 14:32:00,67.1,45.6,30.24,West,270,1.3,1.3,46,0.00,,,0.00,WUHU216HW,2013-06-25 13:32:00,
2013-06-25 14:37:00,67.5,47.7,30.24,South,180,0.4,2.9,49,0.00,,,0.00,WUHU216HW,2013-06-25 13:37:00,
2013-06-25 14:42:00,68.4,47.4,30.24,South,180,2.5,4.7,47,0.00,,,0.00,WUHU216HW,2013-06-25 13:42:00,
2013-06-25 14:47:00,69.5,47.7,30.24,SE,135,1.6,4.7,46,0.00,,,0.00,WUHU216HW,2013-06-25 13:47:00,
2013-06-25 14:52:00,70.2,47.2,30.24,South,180,2.0,2.5,44,0.00,,,0.00,WUHU216HW,2013-06-25 13:52:00,
2013-06-25 14:57:00,70.2,46.0,30.24,West,270,1.3,2.5,42,0.00,,,0.00,WUHU216HW,2013-06-25 13:57:00,
2013-06-25 15:02:00,69.3,45.7,30.24,WSW,248,1.3,2.5,43,0.00,,,0.00,WUHU216HW,2013-06-25 14:02:00,
2013-06-25 15:07:00,68.8,45.9,30.24,WNW,293,1.1,3.6,44,0.00,,,0.00,WUHU216HW,2013-06-25 14:07:00,
2013-06-25 15:12:00,68.0,45.8,30.24,NW,315,0.2,3.6,45,0.00,,,0.00,WUHU216HW,2013-06-25 14:12:00,
2013-06-25 15:17:00,68.2,45.4,30.24,NW,315,0.9,4.7,44,0.00,,,0.00,WUHU216HW,2013-06-25 14:17:00,
2013-06-25 15:22:00,68.0,45.2,30.24,West,270,0.2,4.7,44,0.00,,,0.00,WUHU216HW,2013-06-25 14:22:00,
2013-06-25 15:27:00,68.0,45.8,30.24,North,0,2.0,2.9,45,0.00,,,0.00,WUHU216HW,2013-06-25 14:27:00,
2013-06-25 15:32:00,68.0,45.2,30.24,WNW,293,0.0,3.1,44,0.00,,,0.00,WUHU216HW,2013-06-25 14:32:00,
2013-06-25 15:37:00,68.0,43.5,30.23,ENE,68,2.2,3.6,41,0.00,,,0.00,WUHU216HW,2013-06-25 14:37:00,
2013-06-25 15:42:00,68.0,44.0,30.23,East,90,0.4,3.6,42,0.00,,,0.00,WUHU216HW,2013-06-25 14:42:00,
2013-06-25 15:47:00,67.7,44.9,30.23,WNW,293,2.5,2.5,44,0.00,,,0.00,WUHU216HW,2013-06-25 14:47:00,
2013-06-25 15:52:00,68.0,45.2,30.23,NW,315,2.9,2.9,44,0.00,,,0.00,WUHU216HW,2013-06-25 14:52:00,
2013-06-25 15:57:00,68.4,45.5,30.23,West,270,0.2,2.9,44,0.00,,,0.00,WUHU216HW,2013-06-25 14:57:00,
2013-06-25 16:02:00,68.0,45.8,30.24,NE,45,1.3,2.9,45,0.00,,,0.00,WUHU216HW,2013-06-25 15:02:00,
2013-06-25 16:07:00,67.3,44.6,30.24,WNW,293,1.3,3.6,44,0.00,,,0.00,WUHU216HW,2013-06-25 15:07:00,
2013-06-25 16:12:00,67.0,45.5,30.24,NW,315,0.4,3.6,46,0.00,,,0.00,WUHU216HW,2013-06-25 15:12:00,
2013-06-25 16:17:00,67.3,45.7,30.24,NW,315,1.1,2.9,46,0.00,,,0.00,WUHU216HW,2013-06-25 15:17:00,
2013-06-25 16:22:00,67.5,45.4,30.24,NW,315,1.1,3.8,45,0.00,,,0.00,WUHU216HW,2013-06-25 15:22:00,
2013-06-25 16:27:00,67.3,45.2,30.24,West,270,4.9,4.9,45,0.00,,,0.00,WUHU216HW,2013-06-25 15:27:00,
2013-06-25 16:32:00,67.9,44.5,30.24,East,90,2.0,4.9,43,0.00,,,0.00,WUHU216HW,2013-06-25 15:32:00,
2013-06-25 16:37:00,68.4,44.9,30.24,NW,315,1.1,3.6,43,0.00,,,0.00,WUHU216HW,2013-06-25 15:37:00,
2013-06-25 16:42:00,68.0,44.7,30.24,WNW,293,2.2,4.0,43,0.00,,,0.00,WUHU216HW,2013-06-25 15:42:00,
2013-06-25 16:47:00,67.1,44.4,30.24,WNW,293,0.0,4.0,44,0.00,,,0.00,WUHU216HW,2013-06-25 15:47:00,
2013-06-25 16:52:00,67.0,44.8,30.24,NW,315,1.1,2.5,45,0.00,,,0.00,WUHU216HW,2013-06-25 15:52:00,
2013-06-25 16:57:00,67.0,44.8,30.24,WNW,293,0.2,2.7,45,0.00,,,0.00,WUHU216HW,2013-06-25 15:57:00,
2013-06-25 17:02:00,67.3,45.2,30.24,West,270,0.0,2.7,45,0.00,,,0.00,WUHU216HW,2013-06-25 16:02:00,
2013-06-25 17:07:00,67.7,43.8,30.23,NW,315,3.1,4.7,42,0.00,,,0.00,WUHU216HW,2013-06-25 16:07:00,
2013-06-25 17:12:00,67.1,43.2,30.23,WNW,293,0.9,4.7,42,0.00,,,0.00,WUHU216HW,2013-06-25 16:12:00,
2013-06-25 17:17:00,67.3,43.4,30.23,NNW,338,0.2,3.1,42,0.00,,,0.00,WUHU216HW,2013-06-25 16:17:00,
2013-06-25 17:22:00,67.0,43.7,30.24,West,270,1.1,2.7,43,0.00,,,0.00,WUHU216HW,2013-06-25 16:22:00,
2013-06-25 17:27:00,66.8,43.5,30.24,WNW,293,0.4,2.5,43,0.00,,,0.00,WUHU216HW,2013-06-25 16:27:00,
2013-06-25 17:32:00,66.8,44.1,30.23,WNW,293,0.0,0.9,44,0.00,,,0.00,WUHU216HW,2013-06-25 16:32:00,
2013-06-25 17:37:00,67.5,44.7,30.23,West,270,1.1,1.1,44,0.00,,,0.00,WUHU216HW,2013-06-25 16:37:00,
2013-06-25 17:42:00,67.7,44.3,30.23,West,270,0.2,1.1,43,0.00,,,0.00,WUHU216HW,2013-06-25 16:42:00,
2013-06-25 17:47:00,68.2,44.2,30.24,West,270,1.1,1.1,42,0.00,,,0.00,WUHU216HW,2013-06-25 16:47:00,
2013-06-25 17:52:00,68.2,44.2,30.23,West,270,1.1,2.5,42,0.00,,,0.00,WUHU216HW,2013-06-25 16:52:00,
2013-06-25 17:57:00,68.4,44.4,30.24,WNW,293,0.4,2.5,42,0.00,,,0.00,WUHU216HW,2013-06-25 16:57:00,
2013-06-25 18:02:00,68.6,45.1,30.24,West,270,1.1,2.2,43,0.00,,,0.00,WUHU216HW,2013-06-25 17:02:00,
2013-06-25 18:07:00,69.1,45.6,30.23,West,270,1.1,2.2,43,0.00,,,0.00,WUHU216HW,2013-06-25 17:07:00,
2013-06-25 18:12:00,69.5,45.4,30.23,WNW,293,0.4,1.8,42,0.00,,,0.00,WUHU216HW,2013-06-25 17:12:00,
2013-06-25 18:17:00,69.3,45.2,30.23,WNW,293,0.4,1.1,42,0.00,,,0.00,WUHU216HW,2013-06-25 17:17:00,
2013-06-25 18:22:00,68.8,45.3,30.23,NW,315,3.4,3.4,43,0.00,,,0.00,WUHU216HW,2013-06-25 17:22:00,
2013-06-25 18:27:00,68.8,45.3,30.23,NW,315,0.4,3.4,43,0.00,,,0.00,WUHU216HW,2013-06-25 17:27:00,
2013-06-25 18:32:00,68.6,44.6,30.23,WNW,293,0.7,3.4,42,0.00,,,0.00,WUHU216HW,2013-06-25 17:32:00,
2013-06-25 18:37:00,68.8,45.9,30.23,WNW,293,0.4,1.3,44,0.00,,,0.00,WUHU216HW,2013-06-25 17:37:00,
2013-06-25 18:42:00,68.8,45.3,30.23,WNW,293,0.0,1.3,43,0.00,,,0.00,WUHU216HW,2013-06-25 17:42:00,
2013-06-25 18:47:00,68.8,44.6,30.23,WNW,293,1.1,1.1,42,0.00,,,0.00,WUHU216HW,2013-06-25 17:47:00,
2013-06-25 18:52:00,68.6,45.1,30.23,WNW,293,0.2,1.1,43,0.00,,,0.00,WUHU216HW,2013-06-25 17:52:00,
2013-06-25 18:57:00,68.4,44.9,30.24,NW,315,1.8,3.6,43,0.00,,,0.00,WUHU216HW,2013-06-25 17:57:00,
2013-06-25 19:02:00,68.2,44.8,30.24,NW,315,3.1,3.6,43,0.00,,,0.00,WUHU216HW,2013-06-25 18:02:00,
2013-06-25 19:07:00,68.0,44.7,30.24,West,270,3.1,3.8,43,0.00,,,0.00,WUHU216HW,2013-06-25 18:07:00,
2013-06-25 19:12:00,67.9,44.5,30.24,WNW,293,0.9,3.8,43,0.00,,,0.00,WUHU216HW,2013-06-25 18:12:00,
2013-06-25 19:17:00,68.0,44.0,30.24,NW,315,1.6,3.1,42,0.00,,,0.00,WUHU216HW,2013-06-25 18:17:00,
2013-06-25 19:22:00,67.7,44.3,30.23,West,270,1.3,1.8,43,0.00,,,0.00,WUHU216HW,2013-06-25 18:22:00,
2013-06-25 19:27:00,67.7,44.9,30.24,West,270,0.4,2.0,44,0.00,,,0.00,WUHU216HW,2013-06-25 18:27:00,
2013-06-25 19:32:00,67.5,44.7,30.24,West,270,1.1,2.0,44,0.00,,,0.00,WUHU216HW,2013-06-25 18:32:00,
2013-06-25 19:37:00,67.1,44.4,30.24,WNW,293,0.4,2.2,44,0.00,,,0.00,WUHU216HW,2013-06-25 18:37:00,
2013-06-25 19:42:00,66.8,44.6,30.24,West,270,0.9,2.2,45,0.00,,,0.00,WUHU216HW,2013-06-25 18:42:00,
2013-06-25 19:47:00,66.6,45.1,30.24,West,270,1.3,2.0,46,0.00,,,0.00,WUHU216HW,2013-06-25 18:47:00,
2013-06-25 19:52:00,66.6,45.1,30.24,West,270,0.2,2.0,46,0.00,,,0.00,WUHU216HW,2013-06-25 18:52:00,
2013-06-25 19:57:00,66.6,45.1,30.24,West,270,0.9,1.6,46,0.00,,,0.00,WUHU216HW,2013-06-25 18:57:00,
2013-06-25 20:02:00,66.2,44.8,30.24,West,270,0.7,1.8,46,0.00,,,0.00,WUHU216HW,2013-06-25 19:02:00,
2013-06-25 20:07:00,66.1,45.2,30.24,WNW,293,0.9,1.8,47,0.00,,,0.00,WUHU216HW,2013-06-25 19:07:00,
2013-06-25 20:12:00,65.9,44.5,30.24,WNW,293,0.2,2.7,46,0.00,,,0.00,WUHU216HW,2013-06-25 19:12:00,
2013-06-25 20:17:00,65.9,45.0,30.24,WNW,293,0.4,2.7,47,0.00,,,0.00,WUHU216HW,2013-06-25 19:17:00,
2013-06-25 20:22:00,65.7,45.5,30.24,WNW,293,0.0,1.1,48,0.00,,,0.00,WUHU216HW,2013-06-25 19:22:00,
2013-06-25 20:27:00,65.5,45.3,30.24,WNW,293,0.4,0.7,48,0.00,,,0.00,WUHU216HW,2013-06-25 19:27:00,
2013-06-25 20:32:00,65.7,45.5,30.25,WNW,293,0.4,0.4,48,0.00,,,0.00,WUHU216HW,2013-06-25 19:32:00,
2013-06-25 20:37:00,65.7,46.6,30.24,SW,225,0.4,0.7,50,0.00,,,0.00,WUHU216HW,2013-06-25 19:37:00,
2013-06-25 20:42:00,65.5,46.4,30.25,SW,225,0.4,0.7,50,0.00,,,0.00,WUHU216HW,2013-06-25 19:42:00,
2013-06-25 20:47:00,65.2,46.5,30.25,SW,225,0.0,0.9,51,0.00,,,0.00,WUHU216HW,2013-06-25 19:47:00,
2013-06-25 20:52:00,65.0,46.4,30.25,SW,225,0.0,0.9,51,0.00,,,0.00,WUHU216HW,2013-06-25 19:52:00,
2013-06-25 20:57:00,64.6,46.5,30.25,SW,225,0.0,0.4,52,0.00,,,0.00,WUHU216HW,2013-06-25 19:57:00,
2013-06-25 21:02:00,64.3,46.6,30.25,SW,225,0.0,0.4,53,0.00,,,0.00,WUHU216HW,2013-06-25 20:02:00,
2013-06-25 21:07:00,64.1,46.5,30.25,SW,225,0.0,0.0,53,0.00,,,0.00,WUHU216HW,2013-06-25 20:07:00,
2013-06-25 21:12:00,63.7,46.6,30.25,SW,225,0.0,0.0,54,0.00,,,0.00,WUHU216HW,2013-06-25 20:12:00,
2013-06-25 21:17:00,63.4,46.4,30.25,SW,225,0.0,0.0,54,0.00,,,0.00,WUHU216HW,2013-06-25 20:17:00,
2013-06-25 21:22:00,63.0,46.5,30.25,SW,225,0.0,0.4,55,0.00,,,0.00,WUHU216HW,2013-06-25 20:22:00,
2013-06-25 21:27:00,62.6,46.6,30.25,SW,225,0.0,0.4,56,0.00,,,0.00,WUHU216HW,2013-06-25 20:27:00,
2013-06-25 21:32:00,62.3,46.4,30.25,SW,225,0.0,0.0,56,0.00,,,0.00,WUHU216HW,2013-06-25 20:32:00,
2013-06-25 21:37:00,61.7,46.4,30.26,SW,225,0.0,0.0,57,0.00,,,0.00,WUHU216HW,2013-06-25 20:37:00,
2013-06-25 21:42:00,61.6,46.6,30.26,SW,225,0.0,0.0,58,0.00,,,0.00,WUHU216HW,2013-06-25 20:42:00,
2013-06-25 21:47:00,61.2,46.8,30.26,SW,225,0.0,0.2,59,0.00,,,0.00,WUHU216HW,2013-06-25 20:47:00,
2013-06-25 21:52:00,61.0,46.6,30.26,SW,225,0.0,0.2,59,0.00,,,0.00,WUHU216HW,2013-06-25 20:52:00,
2013-06-25 21:57:00,60.8,47.0,30.26,SW,225,0.0,0.4,60,0.00,,,0.00,WUHU216HW,2013-06-25 20:57:00,
2013-06-25 22:02:00,60.5,46.6,30.26,SW,225,0.0,0.4,60,0.00,,,0.00,WUHU216HW,2013-06-25 21:02:00,
2013-06-25 22:07:00,60.3,46.9,30.26,SW,225,0.0,0.0,61,0.00,,,0.00,WUHU216HW,2013-06-25 21:07:00,
2013-06-25 22:12:00,59.9,46.9,30.26,SW,225,0.0,0.0,62,0.00,,,0.00,WUHU216HW,2013-06-25 21:12:00,
2013-06-25 22:17:00,59.8,46.7,30.26,SW,225,0.0,0.0,62,0.00,,,0.00,WUHU216HW,2013-06-25 21:17:00,
2013-06-25 22:22:00,59.4,46.4,30.26,SW,225,0.0,0.0,62,0.00,,,0.00,WUHU216HW,2013-06-25 21:22:00,
2013-06-25 22:27:00,59.0,46.0,30.26,SW,225,0.0,0.0,62,0.00,,,0.00,WUHU216HW,2013-06-25 21:27:00,
2013-06-25 22:32:00,58.9,46.3,30.26,SW,225,0.0,0.0,63,0.00,,,0.00,WUHU216HW,2013-06-25 21:32:00,
2013-06-25 22:37:00,58.7,46.1,30.26,SW,225,0.0,0.0,63,0.00,,,0.00,WUHU216HW,2013-06-25 21:37:00,
2013-06-25 22:42:00,58.5,46.4,30.26,SW,225,0.0,0.0,64,0.00,,,0.00,WUHU216HW,2013-06-25 21:42:00,
2013-06-25 22:47:00,58.1,46.0,30.26,SW,225,0.0,0.0,64,0.00,,,0.00,WUHU216HW,2013-06-25 21:47:00,
2013-06-25 22:52:00,58.0,45.8,30.26,SW,225,0.0,0.0,64,0.00,,,0.00,WUHU216HW,2013-06-25 21:52:00,
2013-06-25 22:57:00,57.8,46.1,30.26,SW,225,0.0,0.0,65,0.00,,,0.00,WUHU216HW,2013-06-25 21:57:00,
2013-06-25 23:02:00,57.6,45.9,30.26,SW,225,0.0,0.0,65,0.00,,,0.00,WUHU216HW,2013-06-25 22:02:00,
2013-06-25 23:07:00,57.6,46.3,30.26,SW,225,0.0,0.0,66,0.00,,,0.00,WUHU216HW,2013-06-25 22:07:00,
2013-06-25 23:12:00,57.4,46.1,30.26,SW,225,0.0,0.0,66,0.00,,,0.00,WUHU216HW,2013-06-25 22:12:00,
2013-06-25 23:17:00,57.2,46.4,30.26,SW,225,0.0,0.0,67,0.00,,,0.00,WUHU216HW,2013-06-25 22:17:00,
2013-06-25 23:22:00,57.1,46.2,30.27,SW,225,0.0,0.0,67,0.00,,,0.00,WUHU216HW,2013-06-25 22:22:00,
2013-06-25 23:27:00,56.9,46.5,30.27,SW,225,0.0,0.0,68,0.00,,,0.00,WUHU216HW,2013-06-25 22:27:00,
2013-06-25 23:32:00,56.5,46.1,30.26,SW,225,0.0,0.2,68,0.00,,,0.00,WUHU216HW,2013-06-25 22:32:00,
2013-06-25 23:37:00,56.3,46.3,30.26,SW,225,0.0,0.2,69,0.00,,,0.00,WUHU216HW,2013-06-25 22:37:00,
2013-06-25 23:42:00,56.2,46.2,30.26,SW,225,0.0,0.0,69,0.00,,,0.00,WUHU216HW,2013-06-25 22:42:00,
2013-06-25 23:47:00,56.2,46.2,30.27,SW,225,0.2,0.2,69,0.00,,,0.00,WUHU216HW,2013-06-25 22:47:00,
2013-06-25 23:52:00,55.8,46.3,30.27,SW,225,0.0,0.2,70,0.00,,,0.00,WUHU216HW,2013-06-25 22:52:00,
2013-06-25 23:57:00,55.8,46.3,30.26,SW,225,0.0,0.2,70,0.00,,,0.00,WUHU216HW,2013-06-25 22:57:00,